User: anonymous   Login
Location: Bethera
(33.2010°N, 79.7880°W)
Time: 04:01:07
(UTC-04:00)
Language:

Cosmos 1833 Rocket - Orbit

View from above orbital plane
View from above orbital plane
View from above satellite
View from above satellite

Ground track
Ground track

The orbit data is extracted from the following two-line orbital elements,

1 17590U 87027B   16121.93336265 -.00000039  00000-0  44336-5 0  9992
2 17590  71.0026 298.0598 0006586 228.6597 131.3960 14.16724651505735
Epoch (UTC): 30 April 2016 22:24:02
Eccentricity: 0.0006586
inclination: 71.0026°
perigee height: 832 km
apogee height: 841 km
right ascension of ascending node: 298.0598°
argument of perigee: 228.6597°
revolutions per day: 14.16724651
mean anomaly at epoch: 131.3960°
orbit number at epoch: 50573

The dashed part of the orbit path shows where the satellite is in the earth's shadow,  

DLR